Time,TemperatureF,DewpointF,PressureIn,WindDirection,WindDirectionDegrees,WindSpeedMPH,WindSpeedGustMPH,Humidity,HourlyPrecipIn,Conditions,Clouds,dailyrainin,SolarRadiationWatts/m^2,SoftwareType,DateUTC
2013-01-16 00:02:00,60.0,56.0,-100.00,NNE,25,5.0,10.0,87,0.00,,,0.00,0.000000,,2013-01-16 10:02:00,
2013-01-16 00:12:00,60.0,56.0,-100.00,NNE,25,5.0,10.0,87,0.00,,,0.00,0.000000,,2013-01-16 10:12:00,
2013-01-16 00:22:00,60.0,56.0,-100.00,NNE,25,5.0,10.0,87,0.00,,,0.00,0.000000,,2013-01-16 10:22:00,
2013-01-16 00:32:00,60.0,56.0,-100.00,NNE,25,5.0,10.0,87,0.00,,,0.00,0.000000,,2013-01-16 10:32:00,
2013-01-16 01:02:00,60.0,55.0,-100.00,North,11,5.0,10.0,84,0.00,,,0.00,0.000000,,2013-01-16 11:02:00,
2013-01-16 01:12:00,60.0,55.0,-100.00,North,11,5.0,10.0,84,0.00,,,0.00,0.000000,,2013-01-16 11:12:00,
2013-01-16 01:22:00,60.0,55.0,-100.00,North,11,5.0,10.0,84,0.00,,,0.00,0.000000,,2013-01-16 11:22:00,
2013-01-16 01:32:00,60.0,55.0,-100.00,North,11,5.0,10.0,84,0.00,,,0.00,0.000000,,2013-01-16 11:32:00,
2013-01-16 01:53:00,59.0,52.0,-100.00,NNE,26,6.0,12.0,77,0.00,,,0.00,0.000000,,2013-01-16 11:53:00,
2013-01-16 02:03:00,59.0,52.0,-100.00,NNE,26,6.0,12.0,77,0.00,,,0.00,0.000000,,2013-01-16 12:03:00,
2013-01-16 02:12:00,59.0,52.0,-100.00,NNE,26,6.0,12.0,77,0.00,,,0.00,0.000000,,2013-01-16 12:12:00,
2013-01-16 02:22:00,59.0,52.0,-100.00,NNE,26,6.0,12.0,77,0.00,,,0.00,0.000000,,2013-01-16 12:22:00,
2013-01-16 02:32:00,59.0,52.0,-100.00,NNE,26,6.0,12.0,77,0.00,,,0.00,0.000000,,2013-01-16 12:32:00,
2013-01-16 03:02:00,59.0,50.0,-100.00,NNE,23,6.0,12.0,72,0.00,,,-99.99,0.000000,,2013-01-16 13:02:00,
2013-01-16 03:12:00,59.0,50.0,-100.00,NNE,23,6.0,12.0,72,0.00,,,-99.99,0.000000,,2013-01-16 13:12:00,
2013-01-16 03:22:00,59.0,50.0,-100.00,NNE,23,6.0,12.0,72,0.00,,,-99.99,0.000000,,2013-01-16 13:22:00,
2013-01-16 03:32:00,59.0,50.0,-100.00,NNE,23,6.0,12.0,72,0.00,,,-99.99,0.000000,,2013-01-16 13:32:00,
2013-01-16 04:03:00,58.0,50.0,-100.00,NNE,13,5.0,12.0,75,0.00,,,0.00,0.000000,,2013-01-16 14:03:00,
2013-01-16 04:12:00,58.0,50.0,-100.00,NNE,13,5.0,12.0,75,0.00,,,0.00,0.000000,,2013-01-16 14:12:00,
2013-01-16 04:22:00,58.0,50.0,-100.00,NNE,13,5.0,12.0,75,0.00,,,0.00,0.000000,,2013-01-16 14:22:00,
2013-01-16 04:32:00,58.0,50.0,-100.00,NNE,13,5.0,12.0,75,0.00,,,0.00,0.000000,,2013-01-16 14:32:00,
2013-01-16 05:03:00,59.0,52.0,-100.00,NNE,24,6.0,10.0,78,0.00,,,0.00,0.000000,,2013-01-16 15:03:00,
2013-01-16 05:12:00,59.0,52.0,-100.00,NNE,24,6.0,10.0,78,0.00,,,0.00,0.000000,,2013-01-16 15:12:00,
2013-01-16 05:22:00,59.0,52.0,-100.00,NNE,24,6.0,10.0,78,0.00,,,0.00,0.000000,,2013-01-16 15:22:00,
2013-01-16 05:32:00,59.0,52.0,-100.00,NNE,24,6.0,10.0,78,0.00,,,0.00,0.000000,,2013-01-16 15:32:00,
2013-01-16 05:53:00,58.0,52.0,-100.00,NNE,26,7.0,10.0,79,0.00,,,0.00,0.000000,,2013-01-16 15:53:00,
2013-01-16 06:03:00,58.0,52.0,-100.00,NNE,26,7.0,10.0,79,0.00,,,0.00,0.000000,,2013-01-16 16:03:00,
2013-01-16 06:12:00,58.0,52.0,-100.00,NNE,26,7.0,10.0,79,0.00,,,0.00,0.000000,,2013-01-16 16:12:00,
2013-01-16 06:22:00,58.0,52.0,-100.00,NNE,26,7.0,10.0,79,0.00,,,0.00,0.000000,,2013-01-16 16:22:00,
2013-01-16 06:32:00,58.0,52.0,-100.00,NNE,26,7.0,10.0,79,0.00,,,0.00,0.000000,,2013-01-16 16:32:00,
2013-01-16 07:02:00,58.0,52.0,-100.00,NNE,26,6.0,10.0,81,0.00,,,0.00,0.000000,,2013-01-16 17:02:00,
2013-01-16 07:12:00,58.0,52.0,-100.00,NNE,26,6.0,10.0,81,0.00,,,0.00,0.000000,,2013-01-16 17:12:00,
2013-01-16 07:22:00,58.0,52.0,-100.00,NNE,26,6.0,10.0,81,0.00,,,0.00,0.000000,,2013-01-16 17:22:00,
2013-01-16 07:33:00,58.0,52.0,-100.00,NNE,26,6.0,10.0,81,0.00,,,0.00,0.000000,,2013-01-16 17:33:00,
2013-01-16 08:02:00,59.0,53.0,-100.00,NNE,33,6.0,10.0,81,0.00,,,0.00,0.000000,,2013-01-16 18:02:00,
2013-01-16 08:12:00,59.0,53.0,-100.00,NNE,33,6.0,10.0,81,0.00,,,0.00,0.000000,,2013-01-16 18:12:00,
2013-01-16 08:22:00,59.0,53.0,-100.00,NNE,33,6.0,10.0,81,0.00,,,0.00,0.000000,,2013-01-16 18:22:00,
2013-01-16 08:33:00,59.0,53.0,-100.00,NNE,33,6.0,10.0,81,0.00,,,0.00,0.000000,,2013-01-16 18:33:00,
2013-01-16 08:53:00,64.0,57.0,-100.00,ENE,63,2.0,9.0,78,0.00,,,-99.99,4.000000,,2013-01-16 18:53:00,
2013-01-16 09:02:00,64.0,57.0,-100.00,ENE,63,2.0,9.0,78,0.00,,,-99.99,4.000000,,2013-01-16 19:02:00,
2013-01-16 09:12:00,64.0,57.0,-100.00,ENE,63,2.0,9.0,78,0.00,,,-99.99,4.000000,,2013-01-16 19:12:00,
2013-01-16 09:22:00,64.0,57.0,-100.00,ENE,63,2.0,9.0,78,0.00,,,-99.99,4.000000,,2013-01-16 19:22:00,
2013-01-16 09:32:00,64.0,57.0,-100.00,ENE,63,2.0,9.0,78,0.00,,,-99.99,4.000000,,2013-01-16 19:32:00,
2013-01-16 10:03:00,74.0,54.0,-100.00,ESE,110,2.0,6.0,49,0.00,,,0.00,185.000000,,2013-01-16 20:03:00,
2013-01-16 10:12:00,74.0,54.0,-100.00,ESE,110,2.0,6.0,49,0.00,,,0.00,185.000000,,2013-01-16 20:12:00,
2013-01-16 10:23:00,74.0,54.0,-100.00,ESE,110,2.0,6.0,49,0.00,,,0.00,185.000000,,2013-01-16 20:23:00,
2013-01-16 10:32:00,74.0,54.0,-100.00,ESE,110,2.0,6.0,49,0.00,,,0.00,185.000000,,2013-01-16 20:32:00,
2013-01-16 11:02:00,78.0,56.0,-100.00,ESE,102,3.0,8.0,47,0.00,,,-99.99,455.000000,,2013-01-16 21:02:00,
2013-01-16 11:12:00,78.0,56.0,-100.00,ESE,102,3.0,8.0,47,0.00,,,-99.99,455.000000,,2013-01-16 21:12:00,
2013-01-16 11:22:00,78.0,56.0,-100.00,ESE,102,3.0,8.0,47,0.00,,,-99.99,455.000000,,2013-01-16 21:22:00,
2013-01-16 11:32:00,78.0,56.0,-100.00,ESE,102,3.0,8.0,47,0.00,,,-99.99,455.000000,,2013-01-16 21:32:00,
2013-01-16 11:53:00,73.0,61.0,-100.00,NNW,344,10.0,18.0,65,0.00,,,0.00,810.000000,,2013-01-16 21:53:00,
2013-01-16 12:02:00,73.0,61.0,-100.00,NNW,344,10.0,18.0,65,0.00,,,0.00,810.000000,,2013-01-16 22:02:00,
2013-01-16 12:12:00,73.0,61.0,-100.00,NNW,344,10.0,18.0,65,0.00,,,0.00,810.000000,,2013-01-16 22:12:00,
2013-01-16 12:22:00,73.0,61.0,-100.00,NNW,344,10.0,18.0,65,0.00,,,0.00,810.000000,,2013-01-16 22:22:00,
2013-01-16 12:32:00,73.0,61.0,-100.00,NNW,344,10.0,18.0,65,0.00,,,0.00,810.000000,,2013-01-16 22:32:00,
2013-01-16 13:02:00,76.0,57.0,-100.00,NNW,348,8.0,18.0,51,0.00,,,0.00,628.000000,,2013-01-16 23:02:00,
2013-01-16 13:12:00,76.0,57.0,-100.00,NNW,348,8.0,18.0,51,0.00,,,0.00,628.000000,,2013-01-16 23:12:00,
2013-01-16 13:22:00,76.0,57.0,-100.00,NNW,348,8.0,18.0,51,0.00,,,0.00,628.000000,,2013-01-16 23:22:00,
2013-01-16 13:32:00,76.0,57.0,-100.00,NNW,348,8.0,18.0,51,0.00,,,0.00,628.000000,,2013-01-16 23:32:00,
2013-01-16 13:53:00,78.0,57.0,-100.00,WNW,298,5.0,18.0,48,0.00,,,0.00,721.000000,,2013-01-16 23:53:00,
2013-01-16 14:02:00,78.0,57.0,-100.00,WNW,298,5.0,18.0,48,0.00,,,0.00,721.000000,,2013-01-17 00:02:00,
2013-01-16 14:12:00,78.0,57.0,-100.00,WNW,298,5.0,18.0,48,0.00,,,0.00,721.000000,,2013-01-17 00:12:00,
2013-01-16 14:22:00,78.0,57.0,-100.00,WNW,298,5.0,18.0,48,0.00,,,0.00,721.000000,,2013-01-17 00:22:00,
2013-01-16 14:32:00,78.0,57.0,-100.00,WNW,298,5.0,18.0,48,0.00,,,0.00,721.000000,,2013-01-17 00:32:00,
2013-01-16 15:02:00,80.0,57.0,-100.00,South,185,5.0,13.0,45,0.00,,,0.00,1048.000000,,2013-01-17 01:02:00,
2013-01-16 15:12:00,80.0,57.0,-100.00,South,185,5.0,13.0,45,0.00,,,0.00,1048.000000,,2013-01-17 01:12:00,
2013-01-16 15:22:00,80.0,57.0,-100.00,South,185,5.0,13.0,45,0.00,,,0.00,1048.000000,,2013-01-17 01:22:00,
2013-01-16 15:32:00,80.0,57.0,-100.00,South,185,5.0,13.0,45,0.00,,,0.00,1048.000000,,2013-01-17 01:32:00,
2013-01-16 16:02:00,75.0,56.0,-100.00,South,169,3.0,38.0,51,0.00,,,0.00,894.000000,,2013-01-17 02:02:00,
2013-01-16 16:12:00,75.0,56.0,-100.00,South,169,3.0,38.0,51,0.00,,,0.00,894.000000,,2013-01-17 02:12:00,
2013-01-16 16:22:00,75.0,56.0,-100.00,South,169,3.0,38.0,51,0.00,,,0.00,894.000000,,2013-01-17 02:22:00,
2013-01-16 16:32:00,75.0,56.0,-100.00,South,169,3.0,38.0,51,0.00,,,0.00,894.000000,,2013-01-17 02:32:00,
2013-01-16 17:02:00,72.0,53.0,-100.00,NNW,328,9.0,17.0,52,0.00,,,0.00,563.000000,,2013-01-17 03:02:00,
2013-01-16 17:12:00,72.0,53.0,-100.00,NNW,328,9.0,17.0,52,0.00,,,0.00,563.000000,,2013-01-17 03:12:00,
2013-01-16 17:22:00,72.0,53.0,-100.00,NNW,328,9.0,17.0,52,0.00,,,0.00,563.000000,,2013-01-17 03:22:00,
2013-01-16 17:32:00,72.0,53.0,-100.00,NNW,328,9.0,17.0,52,0.00,,,0.00,563.000000,,2013-01-17 03:32:00,
2013-01-16 18:02:00,71.0,55.0,-100.00,NW,317,7.0,16.0,58,0.00,,,0.00,250.000000,,2013-01-17 04:02:00,
2013-01-16 18:12:00,71.0,55.0,-100.00,NW,317,7.0,16.0,58,0.00,,,0.00,250.000000,,2013-01-17 04:12:00,
2013-01-16 18:22:00,71.0,55.0,-100.00,NW,317,7.0,16.0,58,0.00,,,0.00,250.000000,,2013-01-17 04:22:00,
2013-01-16 18:32:00,71.0,55.0,-100.00,NW,317,7.0,16.0,58,0.00,,,0.00,250.000000,,2013-01-17 04:32:00,
2013-01-16 19:04:00,67.0,56.0,-100.00,NNW,348,8.0,18.0,69,0.00,,,0.00,267.000000,,2013-01-17 05:04:00,
2013-01-16 19:12:00,67.0,56.0,-100.00,NNW,348,8.0,18.0,69,0.00,,,0.00,267.000000,,2013-01-17 05:12:00,
2013-01-16 19:22:00,67.0,56.0,-100.00,NNW,348,8.0,18.0,69,0.00,,,0.00,267.000000,,2013-01-17 05:22:00,
2013-01-16 19:32:00,67.0,56.0,-100.00,NNW,348,8.0,18.0,69,0.00,,,0.00,267.000000,,2013-01-17 05:32:00,
2013-01-16 19:53:00,68.0,53.0,-100.00,NNW,331,7.0,15.0,59,0.00,,,0.00,20.000000,,2013-01-17 05:53:00,
2013-01-16 20:02:00,68.0,53.0,-100.00,NNW,331,7.0,15.0,59,0.00,,,0.00,20.000000,,2013-01-17 06:02:00,
2013-01-16 20:12:00,68.0,53.0,-100.00,NNW,331,7.0,15.0,59,0.00,,,0.00,20.000000,,2013-01-17 06:12:00,
2013-01-16 20:22:00,68.0,53.0,-100.00,NNW,331,7.0,15.0,59,0.00,,,0.00,20.000000,,2013-01-17 06:22:00,
2013-01-16 20:32:00,68.0,53.0,-100.00,NNW,331,7.0,15.0,59,0.00,,,0.00,20.000000,,2013-01-17 06:32:00,
2013-01-16 21:02:00,65.0,55.0,-100.00,North,5,3.0,12.0,71,0.00,,,0.00,0.000000,,2013-01-17 07:02:00,
2013-01-16 21:12:00,65.0,55.0,-100.00,North,5,3.0,12.0,71,0.00,,,0.00,0.000000,,2013-01-17 07:12:00,
2013-01-16 21:22:00,65.0,55.0,-100.00,North,5,3.0,12.0,71,0.00,,,0.00,0.000000,,2013-01-17 07:22:00,
2013-01-16 21:32:00,65.0,55.0,-100.00,North,5,3.0,12.0,71,0.00,,,0.00,0.000000,,2013-01-17 07:32:00,
2013-01-16 21:52:00,67.0,59.0,-100.00,North,354,3.0,9.0,76,0.00,,,-99.99,0.000000,,2013-01-17 07:52:00,
2013-01-16 22:02:00,67.0,59.0,-100.00,North,354,3.0,9.0,76,0.00,,,-99.99,0.000000,,2013-01-17 08:02:00,
2013-01-16 22:12:00,67.0,59.0,-100.00,North,354,3.0,9.0,76,0.00,,,-99.99,0.000000,,2013-01-17 08:12:00,
2013-01-16 22:22:00,67.0,59.0,-100.00,North,354,3.0,9.0,76,0.00,,,-99.99,0.000000,,2013-01-17 08:22:00,
2013-01-16 22:32:00,67.0,59.0,-100.00,North,354,3.0,9.0,76,0.00,,,-99.99,0.000000,,2013-01-17 08:32:00,
2013-01-16 22:53:00,64.0,58.0,-100.00,NNW,336,3.0,8.0,82,0.00,,,0.00,0.000000,,2013-01-17 08:53:00,
2013-01-16 23:02:00,64.0,58.0,-100.00,NNW,336,3.0,8.0,82,0.00,,,0.00,0.000000,,2013-01-17 09:02:00,
2013-01-16 23:12:00,64.0,58.0,-100.00,NNW,336,3.0,8.0,82,0.00,,,0.00,0.000000,,2013-01-17 09:12:00,
2013-01-16 23:22:00,64.0,58.0,-100.00,NNW,336,3.0,8.0,82,0.00,,,0.00,0.000000,,2013-01-17 09:22:00,
2013-01-16 23:32:00,64.0,58.0,-100.00,NNW,336,3.0,8.0,82,0.00,,,0.00,0.000000,,2013-01-17 09:32:00,